Погода в Бурукшуне

Россия / Ставропольский край     45°54′32″N   42°32′58″E
темп.,
°C
ветер,
м/с
пор.,
м/с
влажн.,
%
обл.,
%
осадки,
мм/ч
давл.,
гПа
погр.,
м
24 октября, вс
вс2400:00+13зюз41064100 0.0 1019210
03:00+11зюз3682100 0.0 1019108
06:00+11з3588100 0.0 1019131
09:00+12сз2382100 0.0 1020229
12:00+12св2282100 0.4 1019227
15:00+13ссв4577100 0.6 1018507
18:00+11ссв4786100 0.3 1018419
21:00+10ссв61089100 1.5 1017575
25 октября, пн
пн2500:00+7ссв91288100 9.6 1019705
03:00+6ссз6890100 17.6 1021821
06:00+6ссз4883100 1.8 1024816
09:00+8зсз576859 1.8 1026661
12:00+10сз67525 0.0 10261366
15:00+10сз6748100 0.1 10271782
18:00+9сз4647100 0.0 1029415
21:00+5ссз35585 0.0 1031106
26 октября, вт
вт2600:00+4с23645 0.0 103143
03:00+3ссв226680 0.0 103228
06:00+3ссв226764 0.0 103326
09:00+5всв23553 0.0 1034440
12:00+8св32410 0.0 10331029
15:00+9всв33371 0.0 10321031
18:00+5всв34461 0.0 103263
21:00+4в36490 0.0 1032102
27 октября, ср
ср2700:00+3в37510 0.0 1032120
03:00+2в48560 0.0 1031152
06:00+2вюв410610 0.0 1030202
09:00+6вюв611470 0.0 1030485
12:00+11вюв79310 0.0 1028892
15:00+12вюв79280 0.0 1026987
18:00+8вюв511430 0.0 1026265
21:00+6вюв512580 0.0 1025313
28 октября, чт
чт2800:00+5вюв512750 0.0 1024324
03:00+4вюв512840 0.0 1023312
06:00+4юв410920 0.0 1022244
09:00+7ююв457334 0.0 1023303
12:00+13юз3445100 0.0 1022728
15:00+13з3442100 0.0 1021957
18:00+9з3356100 0.0 102236
21:00+8з2262100 0.0 102330